Date,TemperatureHighF,TemperatureAvgF,TemperatureLowF,DewpointHighF,DewpointAvgF,DewpointLowF,HumidityHigh,HumidityAvg,HumidityLow,PressureMaxIn,PressureMinIn,WindSpeedMaxMPH,WindSpeedAvgMPH,GustSpeedMaxMPH,PrecipitationSumIn
2012-1-1,55.2,50.9,44.2,53.4,49.7,42.2,99,96,82,30.03,29.78,18,6,23,0.35
2012-1-2,46.6,42.9,39.4,42.8,36.4,33.1,95,78,61,30.18,29.88,23,5,27,0.01
2012-1-3,54.0,45.5,41.4,53.1,38.3,32.2,98,76,62,30.11,29.63,44,15,49,0.25
2012-1-4,49.8,46.2,39.7,44.9,40.3,29.9,92,80,60,30.40,29.86,46,19,58,0.38
2012-1-5,53.8,47.2,43.5,45.8,36.4,32.8,84,66,54,30.32,29.71,48,19,55,0.01
2012-1-6,49.3,45.6,35.6,46.2,38.9,31.4,89,77,62,30.58,30.32,25,9,27,0.00
2012-1-7,51.1,47.9,45.1,47.8,38.4,34.3,92,70,55,30.52,30.32,30,10,34,0.00
2012-1-8,50.5,47.6,45.1,45.2,41.1,36.4,99,79,65,30.63,30.50,13,4,18,0.00
2012-1-9,54.1,50.0,44.4,47.8,46.7,44.2,99,89,74,30.77,30.61,23,5,24,0.00
2012-1-10,52.3,49.6,46.6,48.8,46.4,44.3,99,89,83,30.79,30.75,18,5,20,0.02
2012-1-11,50.9,48.1,43.7,47.4,44.4,39.5,90,87,79,30.79,30.69,16,6,22,0.00
2012-1-12,55.2,43.3,34.7,48.3,38.4,31.1,94,83,70,30.70,30.53,18,4,24,0.00
2012-1-13,45.9,31.6,25.7,38.2,27.2,22.7,96,84,60,30.78,30.69,7,0,11,0.00
2012-1-14,45.7,32.2,23.5,35.7,27.0,20.8,96,82,58,30.77,30.56,7,0,9,0.00
2012-1-15,43.7,34.5,23.2,33.6,27.4,20.7,93,76,53,30.57,30.03,23,2,27,0.01
2012-1-16,47.5,31.5,21.7,29.9,21.2,18.1,94,67,35,30.60,30.02,13,0,17,0.00
2012-1-17,44.2,34.8,23.4,39.2,30.3,19.4,94,84,69,30.63,30.56,5,0,12,0.00
2012-1-18,53.4,49.7,40.6,52.7,48.9,39.2,99,97,94,30.58,30.43,16,6,23,0.01
2012-1-19,53.6,47.0,43.0,53.0,42.7,36.3,99,85,74,30.43,30.26,30,10,30,0.17
2012-1-20,50.5,46.8,41.0,42.9,40.6,34.2,83,79,73,30.41,30.32,25,12,29,0.00
2012-1-21,54.9,50.7,45.1,49.0,42.4,32.9,95,74,55,30.28,30.07,30,17,32,0.01
2012-1-22,48.9,46.1,44.2,34.9,34.2,33.1,68,63,57,30.38,30.27,8,4,14,0.00
2012-1-23,47.3,40.3,32.9,38.0,33.9,28.9,89,78,67,30.42,30.30,13,4,18,0.00
2012-1-24,49.6,43.0,28.8,49.4,41.9,26.5,99,96,88,30.44,30.26,16,2,18,0.27
2012-1-29,37.8,37.3,36.7,31.2,30.4,29.7,77,76,74,30.68,30.30,12,3,12,0.00
2012-1-30,41.2,34.5,31.1,33.6,28.3,23.3,92,78,56,30.68,30.52,5,0,8,0.00
2012-1-31,35.2,33.4,24.4,32.9,27.9,21.9,95,80,73,30.69,30.53,13,3,27,0.00
2012-2-1,38.7,32.2,29.7,26.7,19.2,15.2,77,59,43,30.87,30.69,15,5,35,0.00
2012-2-2,35.6,29.6,28.0,16.9,14.7,9.3,62,54,35,30.95,30.85,11,4,34,0.00
2012-2-3,50.4,28.6,20.7,46.9,18.2,14.2,88,65,46,31.03,30.33,2,0,7,0.00
2012-2-4,34.9,29.9,16.5,32.2,24.3,12.4,97,80,69,30.92,30.00,15,4,15,0.00
2012-2-5,50.4,34.6,32.5,46.9,33.4,31.5,99,95,88,30.91,29.49,11,0,15,0.19
2012-2-6,41.9,36.3,34.2,38.7,33.9,30.1,99,91,75,30.62,29.92,0,0,0,0.00
2012-2-7,54.5,30.3,26.1,49.4,20.2,13.8,93,66,51,30.76,29.95,0,0,0,0.00
2012-2-8,33.4,31.6,28.6,26.9,24.2,18.9,81,74,66,30.73,30.65,0,0,0,0.00
2012-2-9,35.8,32.8,30.2,29.2,26.6,24.1,92,78,65,30.68,30.59,0,0,0,0.00
2012-2-10,31.3,30.8,30.7,29.3,28.9,28.7,93,93,92,30.63,30.61,0,0,0,0.00
2012-2-27,123.6,50.7,50.0,47.6,47.2,8.7,91,88,82,30.18,29.93,11,2,11,0.00
2012-2-28,59.5,52.6,49.8,51.3,49.6,47.2,97,90,73,30.30,29.93,4,2,8,0.00
2012-2-29,58.5,51.5,48.6,50.0,48.1,46.1,97,88,69,30.31,30.23,4,0,5,0.00
2012-3-1,63.7,45.8,37.2,48.7,42.1,34.5,99,88,54,30.40,30.27,3,0,4,0.00
2012-3-2,50.9,44.2,33.3,46.0,42.3,32.6,99,93,80,30.40,30.15,6,1,10,0.00
2012-3-3,60.3,50.8,44.4,50.0,44.1,36.3,99,80,42,30.20,30.04,11,3,19,0.00
2012-3-4,47.7,43.3,38.3,47.2,40.9,33.0,99,92,75,30.19,29.69,11,4,18,0.27
2012-3-5,51.1,44.2,39.2,35.9,32.1,29.1,82,63,45,30.27,30.13,20,7,24,0.00
2012-3-6,46.4,41.0,37.0,38.4,35.6,31.8,90,81,70,30.33,30.26,12,3,12,0.00
2012-3-7,52.9,44.3,39.6,51.5,36.2,30.7,99,74,53,30.27,29.89,20,7,20,0.12
2012-3-8,56.1,44.8,36.9,39.1,36.7,31.3,87,74,49,30.60,30.27,12,2,12,0.00
2012-3-9,53.4,51.0,43.3,47.3,44.8,38.7,85,79,72,30.60,30.53,17,6,17,0.00
2012-3-10,62.2,53.5,44.6,51.8,48.4,41.9,95,83,65,30.68,30.59,18,4,18,0.00
2012-3-11,67.8,50.2,37.9,50.1,43.6,37.2,99,80,51,30.69,30.59,8,1,8,0.00
2012-3-12,65.1,46.6,34.9,49.1,42.3,33.0,99,86,54,30.63,30.54,11,2,11,0.00
2012-3-13,59.2,46.6,43.5,45.8,42.1,39.5,93,84,59,30.59,30.52,9,2,9,0.00
2012-3-14,63.9,45.8,35.4,44.3,39.2,31.3,91,79,49,30.56,30.39,8,2,8,0.00
2012-3-15,67.6,47.5,29.7,49.9,41.3,27.3,99,80,50,30.41,30.18,11,2,11,0.00
2012-3-16,50.7,48.9,47.3,43.8,42.1,40.1,85,77,70,30.22,30.00,14,4,14,0.00
2012-3-17,52.3,48.9,45.0,49.3,45.6,42.3,95,88,82,30.01,29.87,14,3,14,0.11
2012-3-18,54.7,43.8,32.9,43.5,37.3,28.9,99,79,54,30.38,29.88,17,3,17,0.01
2012-3-19,59.2,46.2,28.2,37.6,33.7,24.6,91,64,37,30.60,30.37,14,3,14,0.00
2012-3-20,63.7,47.4,37.4,44.2,39.4,31.5,88,75,49,30.62,30.52,9,1,9,0.00
2012-3-21,63.7,49.2,43.7,43.5,40.5,38.1,88,73,44,30.61,30.48,15,2,15,0.00
2012-3-22,59.0,50.0,42.8,45.8,43.2,38.8,91,78,47,30.52,30.34,14,3,14,0.00
2012-3-23,73.9,53.2,40.6,50.1,43.6,37.6,99,73,35,30.37,30.29,9,1,9,0.00
2012-3-24,69.3,53.6,36.5,49.4,42.3,33.8,95,68,36,30.47,30.35,20,3,20,0.00
2012-3-25,60.8,48.9,34.2,44.0,40.5,30.7,99,75,46,30.62,30.46,17,3,17,0.00
2012-3-26,67.5,52.1,41.7,45.7,41.2,26.4,99,71,24,30.64,30.59,18,4,18,0.00
2012-3-27,68.4,47.9,32.5,42.4,35.1,29.4,91,65,28,30.66,30.59,12,1,12,0.00
2012-3-28,77.9,53.7,32.5,40.4,34.6,27.8,85,54,18,30.60,30.42,12,1,12,0.00
2012-3-29,70.7,53.6,36.0,44.7,40.8,32.4,92,65,34,30.45,30.30,12,1,12,0.00
2012-3-30,68.0,53.3,37.4,49.4,44.8,35.2,96,74,50,30.33,30.15,11,2,11,0.00
2012-3-31,53.2,48.4,43.2,45.2,36.5,31.7,95,64,55,30.24,30.13,20,6,20,0.00
2012-4-1,61.9,48.4,29.1,37.3,31.5,26.3,90,55,29,30.26,30.03,11,2,11,0.00
2012-4-2,63.0,50.2,33.6,40.2,35.9,29.1,94,60,35,30.04,29.73,9,2,9,0.00
2012-4-3,57.0,48.0,33.1,46.5,42.7,30.3,97,83,57,29.75,29.53,14,2,14,0.06
2012-4-4,51.3,45.9,35.2,43.8,40.5,33.9,99,82,56,30.01,29.60,17,3,17,0.02
2012-4-5,49.1,44.8,37.4,42.8,37.7,30.5,94,77,61,30.17,30.01,17,4,17,0.02
2012-4-6,57.2,45.8,25.9,41.5,34.8,22.3,92,67,43,30.17,29.87,12,3,12,0.00
2012-4-7,54.0,48.0,41.9,44.3,41.1,34.9,85,77,62,30.03,29.86,12,3,12,0.00
2012-4-8,57.9,52.6,43.9,50.6,45.8,38.7,99,78,68,30.03,29.77,17,5,17,0.02
2012-4-9,52.7,50.5,47.7,50.3,48.1,43.8,97,92,79,29.78,29.16,22,7,22,0.20
2012-4-10,58.3,48.4,41.7,49.5,40.6,35.2,95,76,44,29.39,29.16,18,5,18,0.00
2012-4-11,60.4,47.2,34.3,43.5,39.3,31.4,94,76,41,29.59,29.39,14,2,14,0.01
2012-4-12,58.8,43.8,33.1,45.9,40.5,31.5,99,89,56,29.70,29.59,12,1,12,0.11
2012-4-13,60.3,46.2,33.3,43.7,39.1,32.2,99,78,44,29.73,29.64,14,1,14,0.04
2012-4-14,56.8,49.5,43.7,43.6,36.6,30.3,93,63,40,29.95,29.69,17,6,17,0.02
2012-4-15,53.1,45.1,37.4,37.5,32.8,24.8,87,63,37,30.33,29.95,26,7,26,0.00
2012-4-16,58.3,44.6,34.7,33.0,28.7,20.0,86,58,27,30.34,30.10,12,3,12,0.00
2012-4-17,61.0,49.0,40.8,47.2,37.6,30.7,95,66,36,30.10,29.34,30,9,30,0.01
2012-4-18,52.9,48.1,43.2,47.2,44.2,38.8,97,86,76,30.53,28.85,34,9,34,0.31
2012-4-19,52.2,47.3,44.2,48.0,44.8,41.4,98,91,79,29.89,28.71,20,3,20,0.22
2012-4-20,56.3,46.0,40.3,44.8,41.7,38.7,98,86,58,29.42,29.26,18,3,18,0.07
2012-4-21,59.7,48.4,37.6,42.9,38.8,34.4,95,71,44,29.62,29.40,23,5,23,0.05
2012-4-22,61.7,47.8,40.5,46.9,41.3,34.9,92,80,40,29.65,29.56,32,5,32,0.08
2012-4-23,50.7,46.5,43.9,44.5,43.0,39.9,93,88,69,29.64,29.23,18,5,18,0.07
2012-4-24,61.3,49.1,44.1,44.3,40.2,33.4,95,73,42,29.55,29.32,15,4,15,0.13
2012-4-25,55.2,49.3,43.7,48.8,44.4,39.3,93,83,71,29.51,29.04,27,11,27,0.92
2012-4-26,58.1,52.6,48.9,47.9,43.6,40.4,88,72,57,29.68,29.10,30,9,30,0.26
2012-4-27,61.0,53.3,48.2,50.6,44.2,41.6,90,72,53,30.01,29.67,14,3,14,0.41
2012-4-28,50.9,47.1,43.7,47.5,43.8,41.1,92,88,85,30.01,29.88,26,7,26,0.32
2012-4-29,60.6,51.0,43.2,52.0,44.3,40.9,93,79,63,29.88,29.56,30,10,30,0.58
2012-4-30,67.6,57.7,48.7,51.1,47.3,40.3,87,69,43,29.98,29.75,26,9,26,0.02
2012-5-1,67.5,57.1,51.3,55.2,48.4,44.1,96,74,50,30.18,29.91,15,3,15,0.32
2012-5-2,58.8,53.6,50.2,51.6,47.6,44.2,90,81,61,30.19,30.00,14,4,14,0.00
2012-5-3,50.2,48.1,46.9,46.8,45.2,43.9,94,90,86,30.02,29.79,11,2,11,0.06
2012-5-4,49.6,47.8,45.5,44.6,42.9,41.2,92,83,76,29.80,29.73,14,3,14,0.01
2012-5-5,51.4,47.5,43.7,42.1,37.5,33.6,83,69,53,29.91,29.75,18,6,18,0.04
2012-5-6,50.2,45.1,37.4,39.4,37.0,32.5,88,74,56,30.06,29.90,14,3,14,0.05
2012-5-7,60.3,50.2,35.1,50.9,44.0,31.0,92,80,65,30.07,29.85,18,6,18,0.05
2012-5-8,67.3,57.5,51.6,53.7,49.6,48.1,91,76,55,29.86,29.71,20,4,20,0.06
2012-5-9,62.4,57.4,52.2,56.6,53.6,48.4,92,87,77,29.84,29.75,17,4,17,0.08
2012-5-10,63.9,60.1,58.3,58.2,56.3,54.1,92,87,81,29.95,29.75,20,7,20,0.15
2012-5-11,63.0,56.2,48.0,53.9,40.7,32.6,86,58,36,30.54,29.95,17,7,17,0.00
2012-5-12,64.0,53.7,41.4,38.6,34.5,30.7,78,51,31,30.68,30.55,14,2,14,0.00
2012-5-13,68.0,53.5,36.7,43.7,38.7,31.9,88,60,34,30.66,30.24,18,4,18,0.00
2012-5-14,54.5,50.1,43.7,48.2,43.7,37.0,85,79,70,30.24,29.88,17,4,17,0.08
2012-5-15,55.0,45.6,41.4,43.6,39.7,37.3,91,80,56,30.25,29.91,20,2,20,0.18
2012-5-16,61.0,50.6,35.6,42.7,38.0,31.5,91,65,37,30.32,30.25,12,2,12,0.00
2012-5-17,61.2,52.7,41.4,44.0,39.7,35.4,88,63,43,30.26,29.81,18,5,18,0.00
2012-5-18,61.3,55.2,49.5,52.6,48.8,42.7,86,79,57,29.80,29.62,17,5,17,0.00
2012-5-19,69.1,59.5,51.4,51.6,48.2,44.5,91,67,45,29.91,29.73,15,4,15,0.00
2012-5-20,55.6,52.9,49.3,46.9,45.8,43.0,82,77,71,29.91,29.81,17,6,17,0.00
2012-5-21,66.4,58.3,49.8,52.7,50.0,44.9,86,74,59,29.88,29.79,12,4,13,0.00
2012-5-22,80.8,68.8,56.8,62.1,58.2,51.1,89,70,49,30.12,29.87,15,2,15,0.00
2012-5-23,85.1,73.8,55.9,64.7,60.7,54.2,94,66,46,30.27,30.12,12,2,12,0.00
2012-5-24,82.9,71.8,59.4,64.2,61.7,57.2,98,72,49,30.32,30.25,12,3,12,0.00
2012-5-25,77.5,69.2,60.1,61.4,53.6,44.6,94,61,34,30.28,30.14,29,8,29,0.00
2012-5-26,79.0,68.7,59.5,58.0,51.2,39.5,93,58,27,30.20,30.05,27,8,27,0.00
2012-5-27,81.9,72.3,56.3,57.0,51.6,48.7,87,50,33,30.11,30.01,23,5,23,0.00
2012-5-28,82.9,71.6,50.9,60.2,54.8,48.2,94,58,37,30.11,30.01,11,3,11,0.00
2012-5-29,78.4,63.6,58.6,60.2,57.3,54.7,91,81,50,30.07,29.97,15,2,15,0.00
2012-5-30,81.3,66.6,54.7,60.4,56.5,53.5,99,73,44,30.10,30.00,12,3,13,0.00
2012-5-31,70.2,62.1,55.9,57.8,55.7,52.7,94,80,63,30.13,30.06,15,4,15,0.00
2012-6-1,73.0,63.8,53.6,59.3,56.7,52.5,99,79,57,30.14,30.08,14,2,14,0.00
2012-6-2,59.0,57.5,52.9,57.2,56.8,51.5,98,98,90,30.08,29.81,11,4,11,0.14
2012-6-3,57.7,54.4,52.2,56.6,53.5,51.6,99,97,92,29.82,29.71,17,3,17,0.57
2012-6-4,60.4,51.9,42.8,53.9,46.6,41.5,99,84,54,30.15,29.75,20,4,20,0.14
2012-6-5,59.9,52.1,40.3,55.3,48.5,40.0,99,89,63,30.15,29.69,26,6,26,0.14
2012-6-6,67.6,59.7,53.6,59.5,55.2,51.8,99,86,66,29.69,29.58,20,5,20,0.02
2012-6-7,62.1,56.3,53.8,59.5,53.7,49.9,96,92,76,29.66,29.35,20,5,20,0.21
2012-6-8,60.6,56.7,54.1,53.9,49.3,45.7,95,76,66,29.75,29.36,24,10,24,0.13
2012-6-9,68.5,58.6,52.2,52.0,46.8,42.2,89,67,41,29.92,29.75,26,8,26,0.00
2012-6-10,62.6,52.6,47.8,55.3,50.0,46.8,97,92,64,29.92,29.66,15,2,15,0.44
2012-6-11,56.5,54.4,51.4,56.2,53.7,51.2,99,98,97,29.67,29.56,20,6,20,0.96
2012-6-12,56.7,52.9,50.9,53.1,50.3,46.7,99,91,74,29.99,29.67,17,4,17,0.17
2012-6-13,67.6,56.1,42.1,50.5,45.9,41.1,99,72,40,30.11,29.95,12,2,12,0.00
2012-6-14,67.3,57.4,43.3,54.5,48.2,41.7,97,73,47,30.11,29.83,26,8,26,0.05
2012-6-15,66.2,60.0,55.2,57.9,54.1,49.1,99,82,60,29.83,29.71,27,6,27,0.15
2012-6-16,65.8,58.2,54.1,53.6,51.5,48.3,90,79,57,29.92,29.77,24,10,24,0.00
2012-6-17,70.7,61.3,52.9,53.5,51.1,48.4,89,71,47,30.08,29.92,20,5,20,0.00
2012-6-18,69.3,59.4,50.0,54.3,49.7,45.1,98,72,52,30.16,29.99,12,2,12,0.12
2012-6-19,77.0,59.8,44.4,54.8,50.0,42.9,98,73,38,30.16,30.06,15,2,15,0.00
2012-6-20,74.5,63.0,48.7,56.1,49.3,42.1,99,65,34,30.09,29.90,20,4,20,0.00
2012-6-21,68.7,60.6,52.7,64.8,56.7,50.6,99,88,69,29.90,29.61,30,6,30,0.15
2012-6-22,66.6,58.6,52.9,58.4,53.9,50.6,95,85,68,30.07,29.75,22,7,22,0.07
2012-6-23,69.3,58.9,51.4,54.1,50.8,46.2,93,76,53,30.15,30.07,15,5,16,0.02
2012-6-24,70.5,62.7,53.2,60.5,53.8,51.1,99,74,52,30.09,29.82,27,6,27,0.33
2012-6-25,76.3,58.0,53.6,57.4,52.7,51.5,93,84,49,30.11,30.01,6,0,6,0.00
2012-6-26,75.0,65.0,54.7,63.7,57.0,48.3,95,77,45,30.15,30.08,15,2,15,0.00
2012-6-27,75.4,67.5,62.4,66.4,62.8,60.4,96,85,71,30.13,29.90,12,3,12,0.00
2012-6-28,83.8,69.1,58.8,70.9,60.6,54.2,96,76,44,29.90,29.55,23,5,23,0.00
2012-6-29,72.5,63.1,56.8,60.0,56.4,52.9,93,80,52,29.75,29.63,22,6,22,0.00
2012-6-30,71.1,63.5,55.8,60.7,54.7,49.4,96,75,50,29.88,29.73,20,6,20,0.01
2012-7-1,68.2,59.1,51.8,56.8,51.6,46.3,92,77,56,30.09,29.88,18,5,18,0.02
2012-7-2,65.1,59.7,54.1,60.4,55.9,51.4,99,87,68,30.08,29.97,23,6,23,0.11
2012-7-3,67.1,62.9,60.3,63.2,60.7,59.7,99,93,82,29.98,29.90,14,4,14,0.02
2012-7-4,71.6,65.4,61.2,65.6,62.3,60.3,98,90,75,29.90,29.78,15,5,15,0.18
2012-7-5,75.7,65.7,57.9,61.3,57.4,54.1,98,76,54,29.85,29.78,15,2,15,0.00
2012-7-6,69.1,62.0,58.5,61.6,57.7,55.5,95,86,67,29.82,29.72,15,3,15,0.05
2012-7-7,67.3,61.4,55.2,59.0,56.4,53.4,98,84,65,29.79,29.69,24,6,24,0.15
2012-7-8,74.3,61.7,58.1,60.9,58.6,56.9,99,91,61,29.83,29.64,14,1,14,0.43
2012-7-9,68.0,61.4,56.7,60.4,57.9,55.1,99,89,72,29.91,29.83,11,2,11,0.01
2012-7-10,67.1,60.4,54.5,61.8,56.1,53.0,98,86,66,29.91,29.81,15,3,15,0.07
2012-7-11,71.1,59.2,52.7,59.9,53.7,46.1,98,83,44,29.91,29.81,29,3,29,0.21
2012-7-12,69.3,58.0,49.1,57.2,52.4,48.1,99,84,51,29.95,29.74,17,4,17,0.26
2012-7-13,68.7,61.5,57.7,59.3,56.3,53.1,99,84,59,29.74,29.53,15,4,15,0.04
2012-7-14,63.9,58.9,55.2,58.8,56.2,53.4,99,91,73,29.88,29.55,14,2,14,0.30
2012-7-15,69.3,60.1,53.8,56.2,50.1,44.5,99,72,43,30.19,29.88,17,3,17,0.01
2012-7-16,63.3,60.0,55.2,60.6,56.1,47.3,96,87,74,30.19,30.07,20,5,20,0.07
2012-7-17,73.6,65.5,56.8,63.9,59.2,55.4,97,81,62,30.24,30.15,14,4,14,0.04
2012-7-18,66.4,61.7,59.2,62.3,59.2,55.9,97,92,75,30.15,29.79,12,4,12,0.08
2012-7-19,70.3,62.2,56.1,58.7,54.4,50.3,96,77,53,29.95,29.78,17,4,17,0.00
2012-7-20,70.3,61.0,52.5,55.6,52.6,47.8,94,75,49,30.15,29.95,14,2,17,0.00
2012-7-21,75.6,63.1,54.3,55.0,51.8,45.1,88,69,38,30.35,30.15,15,2,15,0.00
2012-7-22,77.7,64.3,51.1,56.4,52.8,49.3,96,69,43,30.37,30.28,20,3,20,0.00
2012-7-23,85.3,69.0,50.7,60.0,54.3,47.6,94,63,28,30.31,30.12,15,3,15,0.00
2012-7-24,91.4,72.4,53.2,60.2,56.1,51.3,96,62,31,30.18,29.97,14,1,14,0.00
2012-7-25,93.6,74.3,55.9,63.7,57.5,53.1,94,60,32,30.09,29.96,14,2,14,0.00
2012-7-26,85.3,73.0,62.8,62.0,58.0,54.3,82,61,40,30.09,29.98,15,3,15,0.00
2012-7-27,77.5,69.4,59.5,66.2,61.4,54.8,97,77,60,30.01,28.69,12,2,12,0.00
2012-7-28,73.9,64.3,54.3,54.6,48.9,40.5,74,58,39,29.93,29.86,12,3,12,0.00
2012-7-29,70.0,57.5,51.6,59.4,52.1,45.1,99,83,53,30.00,29.83,14,3,14,0.54
2012-7-30,70.0,59.4,49.5,54.0,49.8,41.4,96,73,38,30.07,29.96,17,4,17,0.01
2012-7-31,71.1,61.2,52.3,62.5,57.9,50.3,98,89,73,30.07,29.96,17,3,17,0.08
2012-8-1,76.8,64.8,55.9,62.6,59.5,52.8,99,84,52,29.98,29.76,23,5,23,0.00
2012-8-2,72.0,64.8,59.9,63.5,58.4,55.7,96,80,61,29.95,29.81,17,4,17,0.04
2012-8-3,74.7,63.6,54.5,62.0,56.2,52.8,99,79,50,29.97,29.89,27,5,27,0.00
2012-8-4,70.9,63.5,58.3,62.6,58.5,55.5,99,85,66,29.94,29.82,23,5,23,0.11
2012-8-5,72.3,61.9,52.9,63.9,57.2,52.3,99,86,60,29.84,29.71,17,2,17,0.39
2012-8-6,74.3,62.7,58.3,60.6,57.8,54.2,99,85,54,30.02,29.75,15,3,15,0.08
2012-8-7,69.8,59.7,50.9,59.5,55.2,50.5,99,86,63,30.23,30.02,11,3,12,0.01
2012-8-8,77.9,66.9,59.0,65.1,61.0,57.0,98,83,56,30.30,30.22,11,1,11,0.00
2012-8-9,84.7,68.7,53.1,63.6,57.0,51.2,99,71,35,30.37,30.29,12,1,12,0.00
2012-8-10,87.3,70.0,54.5,62.8,58.0,53.7,99,70,37,30.38,30.25,15,1,15,0.00
2012-8-11,76.5,66.1,53.2,59.0,55.2,50.1,95,70,44,30.29,30.02,26,5,26,0.00
2012-8-12,81.9,68.3,60.1,64.4,59.8,55.4,94,76,45,30.02,29.86,22,3,22,0.00
2012-8-13,74.5,66.2,60.1,64.6,61.5,58.1,99,85,61,29.92,29.85,18,5,18,0.00
2012-8-14,81.0,69.6,63.5,64.5,62.1,58.4,99,79,49,29.91,29.85,15,3,15,0.01
2012-8-15,69.6,65.3,63.5,60.7,59.2,55.6,85,81,64,29.87,29.74,15,2,15,0.02
2012-8-16,72.3,66.5,61.3,63.0,58.5,54.6,89,76,58,30.05,29.84,17,4,17,0.02
2012-8-17,84.9,71.8,65.5,66.0,59.7,54.0,87,67,38,30.00,29.92,17,6,17,0.00
2012-8-18,91.8,77.8,66.9,67.8,63.1,57.9,95,62,43,30.04,29.89,15,3,16,0.00
2012-8-19,88.2,73.8,59.5,74.5,65.5,58.8,99,77,47,30.07,29.93,11,1,11,0.04
2012-8-20,83.1,66.7,58.8,65.4,61.3,57.5,98,84,51,30.18,30.06,12,1,12,0.00
2012-8-21,74.3,66.3,59.0,63.0,59.7,56.2,99,80,59,30.17,30.00,11,2,11,0.00
2012-8-22,70.7,66.6,57.9,60.6,59.5,53.2,90,78,54,30.10,30.01,9,3,9,0.00
2012-8-23,75.2,63.2,51.1,58.4,54.6,50.5,99,76,48,30.10,29.85,12,2,12,0.00
2012-8-24,68.2,59.3,57.6,61.5,56.3,54.7,98,90,71,29.85,29.58,18,2,18,0.11
2012-8-25,73.8,63.7,59.7,64.2,60.6,57.0,99,90,65,29.77,29.53,17,4,17,0.21
2012-8-26,74.3,63.4,55.9,57.4,53.7,48.9,93,73,44,30.13,29.78,17,4,17,0.01
2012-8-27,72.5,63.3,52.2,60.6,57.1,51.1,99,81,61,30.13,29.83,24,5,24,0.01
2012-8-28,75.2,65.0,57.4,61.7,58.7,55.8,99,82,57,30.03,29.82,20,4,20,0.05
2012-8-29,69.3,60.7,57.2,61.2,57.5,53.0,98,90,58,30.02,29.88,24,5,24,0.07
2012-8-30,65.8,59.4,51.1,58.8,53.3,40.8,93,81,65,30.37,29.93,22,5,22,0.05
2012-8-31,70.9,55.8,44.1,51.6,44.0,40.1,89,67,35,30.46,30.37,9,1,9,0.00
2012-9-1,73.0,62.6,55.8,62.3,55.1,47.1,88,77,44,30.44,30.27,14,2,14,0.00
2012-9-2,67.6,61.1,54.3,62.4,58.5,52.8,98,91,80,30.35,30.28,11,2,11,0.00
2012-9-3,82.8,67.2,57.7,63.9,59.2,54.1,99,79,43,30.37,30.29,8,1,8,0.00
2012-9-4,82.9,65.9,52.2,64.9,58.9,51.6,99,80,52,30.30,30.21,14,2,14,0.00
2012-9-5,73.2,61.8,50.7,51.5,48.2,45.2,85,63,40,30.46,30.29,22,4,22,0.00
2012-9-6,74.3,58.8,41.5,55.4,48.4,40.8,99,72,41,30.48,30.32,12,1,12,0.00
2012-9-7,84.7,64.0,47.8,56.3,50.5,40.6,99,68,25,30.35,30.24,11,2,11,0.00
2012-9-8,88.5,62.9,43.7,56.4,48.8,42.1,98,66,23,30.27,30.07,9,1,9,0.00
2012-9-9,82.8,63.4,44.6,60.2,52.1,42.7,99,72,31,30.09,29.81,20,3,20,0.00
2012-9-10,70.0,64.9,61.5,62.8,60.0,57.1,95,84,73,29.89,29.84,18,5,18,0.00
2012-9-11,68.0,60.7,50.7,61.5,48.6,39.3,98,66,38,30.07,29.38,18,5,18,0.38
2012-9-12,65.5,56.5,41.7,56.1,49.3,40.1,96,78,58,30.08,29.84,14,3,14,0.06
2012-9-13,70.7,56.0,42.1,53.2,47.4,41.8,99,75,45,30.19,30.02,12,2,12,0.00
2012-9-14,72.5,62.1,51.3,59.4,52.7,46.6,89,73,42,30.11,29.92,22,6,22,0.00
2012-9-15,76.5,59.3,44.8,56.7,51.4,2.0,99,77,47,30.15,30.03,98,2,98,0.00
2012-9-16,68.4,59.9,51.4,57.0,54.1,51.0,99,82,58,30.06,29.91,14,2,14,0.00
2012-9-17,68.0,60.6,55.0,57.3,52.5,45.4,99,77,51,29.99,29.92,14,4,14,0.00
2012-9-18,67.5,57.8,49.5,54.8,46.2,37.6,95,68,37,30.17,29.90,17,4,17,0.00
2012-9-19,67.1,52.6,39.4,46.3,42.0,37.6,97,70,37,30.29,30.17,12,2,12,0.00
2012-9-20,66.6,55.4,44.4,49.6,46.7,41.0,93,74,49,30.33,30.14,12,2,12,0.00
2012-9-21,63.9,55.2,46.8,54.8,49.3,45.4,97,82,56,30.15,29.94,14,1,14,0.01
2012-9-22,64.2,53.1,39.6,49.9,43.3,39.0,99,72,42,30.20,30.06,14,2,14,0.00
2012-9-23,54.0,50.8,44.4,52.9,48.1,40.1,99,91,76,30.15,29.45,29,3,29,0.96
2012-9-24,61.3,55.8,52.3,60.6,53.1,47.7,99,91,67,29.47,29.14,20,4,20,0.30
2012-9-25,62.2,54.9,49.6,56.6,49.8,46.6,93,83,66,29.28,29.20,23,5,23,0.05
2012-9-26,62.2,53.9,47.7,57.5,52.0,47.4,99,94,77,29.54,29.24,15,3,15,0.33
2012-9-27,67.5,55.3,47.7,54.0,50.4,47.4,99,85,54,29.98,29.54,12,2,12,0.04
2012-9-28,66.0,55.1,48.0,56.8,51.7,46.6,96,89,69,30.00,29.91,20,2,20,0.01
2012-9-29,63.9,53.0,45.1,52.2,45.8,40.6,99,79,45,30.24,30.00,12,2,14,0.00
2012-9-30,64.2,54.2,41.2,54.5,49.5,39.7,98,85,69,30.24,30.03,18,4,18,0.00
2012-10-1,63.3,58.2,53.6,61.2,56.3,52.2,99,94,85,30.03,29.90,14,4,14,0.20
2012-10-2,65.7,56.9,51.4,55.8,53.3,49.6,96,88,65,29.96,29.75,18,4,21,0.07
2012-10-3,59.5,55.1,50.4,55.3,49.7,45.2,96,83,61,29.79,29.73,15,3,15,0.05
2012-10-4,63.7,52.9,41.7,49.4,46.7,41.5,99,81,56,29.90,29.72,17,3,17,0.00
2012-10-5,61.7,55.3,48.9,60.4,52.6,48.7,99,91,72,29.90,29.57,24,4,24,0.43
2012-10-6,66.9,50.9,41.4,53.1,46.3,40.3,99,86,48,30.10,29.82,15,2,15,0.31
2012-10-7,64.4,47.4,35.2,52.2,43.7,33.8,99,88,61,30.27,30.09,6,0,6,0.00
2012-10-8,56.1,53.4,44.4,55.0,51.6,43.5,98,94,83,30.23,29.90,14,2,14,0.37
2012-10-9,58.1,53.4,49.6,52.9,48.9,45.5,99,85,69,30.09,29.97,14,2,14,0.01
2012-10-10,59.4,52.7,41.9,47.7,44.8,39.5,94,75,60,30.07,29.93,12,2,12,0.00
2012-10-11,61.2,56.0,47.8,59.8,52.9,39.9,97,89,76,30.07,29.53,17,4,17,0.11
2012-10-12,59.4,52.3,46.8,56.6,45.2,39.6,94,77,55,29.87,29.56,15,5,15,0.01
2012-10-13,57.7,47.4,40.1,51.0,43.6,38.5,97,87,64,29.83,29.69,11,2,11,0.06
2012-10-14,60.6,44.3,32.5,44.8,38.0,30.8,98,80,44,29.71,29.59,12,1,13,0.00
2012-10-15,58.1,47.9,33.3,51.3,43.0,30.7,97,84,66,29.73,29.54,14,3,14,0.07
2012-10-16,61.5,53.5,45.7,52.4,45.3,39.2,93,75,49,29.73,29.43,27,6,27,0.04
2012-10-17,64.2,57.1,49.3,55.9,50.6,45.0,96,80,58,29.67,29.41,26,8,26,0.38
2012-10-18,63.0,57.6,54.3,54.7,52.8,49.8,92,84,66,29.78,29.54,20,7,20,0.05
2012-10-19,56.7,54.6,52.9,54.9,53.3,51.3,98,95,91,29.89,29.76,8,1,8,0.34
2012-10-20,59.9,52.9,46.6,56.3,50.9,46.1,99,93,72,30.14,29.88,6,0,6,0.18
2012-10-21,54.7,52.7,50.4,53.1,51.0,48.7,98,94,88,30.15,30.07,20,3,20,0.07
2012-10-22,59.4,57.2,54.0,59.1,56.8,53.1,99,99,97,30.26,30.09,9,2,9,0.01
2012-10-23,57.9,56.4,55.2,57.7,55.8,54.4,99,98,95,30.31,30.26,9,2,9,0.01
2012-10-24,62.4,58.1,55.9,57.5,55.6,53.6,99,92,77,30.26,30.09,15,4,15,0.00
2012-10-25,58.1,55.1,50.4,56.2,52.1,44.8,97,90,77,30.10,30.02,26,7,26,0.00
2012-10-26,50.7,47.0,39.9,44.8,40.9,33.3,88,79,69,30.04,29.89,23,8,23,0.02
2012-10-27,47.7,41.3,36.9,37.8,34.2,-19.2,89,76,64,30.21,29.93,199,6,199,0.00
2012-10-28,50.4,42.4,32.4,45.2,38.7,29.1,95,87,78,30.22,29.91,9,2,10,0.09
2012-10-29,56.3,50.0,45.5,49.1,46.4,43.6,97,88,72,29.92,29.77,12,2,12,0.11
2012-10-30,52.0,45.4,37.4,47.6,41.3,36.7,99,86,63,29.80,29.56,8,1,8,0.01
2012-10-31,55.6,50.0,42.3,48.3,43.7,38.0,87,79,69,29.56,28.94,26,8,26,0.06
2012-11-1,53.6,45.3,39.4,48.4,41.2,35.3,98,86,68,29.21,28.88,24,3,24,0.56
2012-11-2,54.9,44.6,38.1,40.8,37.6,34.5,87,77,57,29.47,29.21,17,3,17,0.00
2012-11-3,52.0,43.3,34.5,41.1,36.4,30.2,95,77,57,29.59,29.40,22,3,22,0.00
2012-11-4,49.6,40.1,31.8,46.2,37.2,29.1,96,89,84,29.59,29.18,29,3,29,0.78
2012-11-5,53.2,40.6,31.3,43.2,35.6,29.0,98,84,55,30.09,29.53,14,2,14,0.00
2012-11-6,50.5,41.6,28.8,45.6,37.4,26.5,97,85,66,30.28,30.09,12,2,12,0.01
2012-11-7,50.9,46.7,38.8,44.0,42.2,37.8,97,85,74,30.36,27.32,18,3,18,0.01
2012-11-8,55.4,50.0,46.4,47.4,43.2,40.6,87,78,62,30.24,30.08,15,3,30,0.00
2012-11-9,55.4,49.7,45.0,46.8,43.0,40.3,87,78,66,30.10,29.66,17,2,17,0.00
2012-11-10,38.5,36.9,35.6,37.2,35.0,33.1,95,93,90,29.64,29.59,1,0,2,0.15
2012-11-11,57.9,39.5,31.3,41.9,35.3,29.5,97,86,51,30.18,29.65,8,1,8,0.00
2012-11-12,54.7,47.6,34.7,53.0,45.2,31.8,96,91,82,30.29,30.17,15,2,15,0.07
2012-11-13,99.7,54.8,50.5,52.5,50.8,33.5,94,87,69,30.41,30.29,14,3,14,0.01
2012-11-14,61.9,51.4,39.2,50.6,44.6,34.2,93,79,40,30.41,30.32,12,3,12,0.00
2012-11-15,53.8,44.6,35.8,44.7,40.8,32.4,95,87,66,30.34,30.16,9,1,9,0.00
2012-11-16,51.3,46.8,43.2,49.3,44.0,39.0,95,90,84,30.16,29.81,14,3,14,0.00
2012-11-17,55.2,51.6,45.5,52.9,47.8,40.8,94,87,75,29.94,29.75,12,3,12,0.00
2012-11-18,58.3,39.2,30.4,40.5,33.5,27.5,95,81,44,30.07,29.93,6,0,6,0.00
2012-11-19,52.7,46.1,30.0,49.1,40.6,26.5,95,81,64,30.05,29.85,27,6,27,0.00
2012-11-20,57.0,54.5,52.0,52.9,51.2,48.8,93,89,84,29.92,29.81,27,10,27,0.08
2012-11-21,54.1,48.9,43.2,49.9,45.8,41.0,93,89,84,30.07,29.59,35,8,35,0.44
2012-11-22,56.5,53.1,45.9,48.8,46.5,42.6,90,79,69,30.06,29.73,37,13,37,0.63
2012-11-23,57.4,45.9,37.8,46.0,41.9,36.2,94,86,59,30.08,29.78,14,2,14,0.15
2012-11-24,53.2,44.0,33.6,51.9,41.7,31.2,97,92,88,30.08,29.34,24,5,24,0.24
2012-11-25,55.4,50.9,45.5,53.2,44.5,36.2,95,79,66,29.78,29.27,39,12,39,0.14
2012-11-26,52.3,47.3,44.8,46.5,44.5,25.1,95,90,76,29.64,29.47,30,3,30,0.30
2012-11-27,47.3,45.3,43.7,45.9,42.6,39.5,96,90,81,29.91,29.56,23,6,23,0.09
2012-11-28,45.3,42.9,37.0,40.4,37.8,30.2,88,82,76,30.03,29.91,20,6,20,0.00
2012-11-29,47.1,36.7,29.5,37.0,31.5,26.2,90,81,67,30.02,29.92,11,2,11,0.00
2012-11-30,41.9,32.4,26.2,34.6,28.4,22.7,91,85,72,30.03,29.91,8,0,8,0.00
2012-12-1,44.1,34.6,27.9,38.0,30.5,23.7,97,85,69,30.07,29.95,22,2,22,0.00
2012-12-2,42.8,32.4,23.9,34.8,27.4,20.4,91,82,65,30.11,30.00,11,1,11,0.02
2012-12-3,51.8,45.0,36.9,49.3,41.4,32.2,96,87,70,30.00,29.70,26,6,26,0.14
2012-12-4,46.6,38.6,29.1,37.2,33.0,26.3,91,81,66,29.71,29.65,23,4,23,0.01
2012-12-5,40.3,31.7,27.0,33.9,25.9,22.8,89,79,68,30.08,29.67,15,2,15,0.04
2012-12-6,43.0,33.7,23.7,40.3,28.7,19.3,91,82,63,30.16,29.52,17,3,17,0.11
2012-12-7,46.4,41.0,36.0,40.5,34.5,31.3,91,78,58,30.03,29.50,30,10,30,0.05
2012-12-8,46.4,39.9,35.8,37.5,34.6,30.3,89,81,70,30.36,30.03,17,3,17,0.00
2012-12-9,48.7,44.5,38.1,41.5,38.3,33.0,88,79,67,30.33,30.02,26,8,26,0.00
2012-12-10,43.9,38.2,29.8,34.4,31.9,25.9,87,78,67,30.43,30.10,17,4,17,0.00
2012-12-11,41.2,29.9,23.9,35.4,25.7,20.1,90,84,72,30.50,30.41,6,0,6,0.00
2012-12-12,33.4,27.7,23.9,31.4,24.6,20.6,94,88,81,30.41,29.96,4,0,4,0.00
2012-12-13,35.2,31.8,23.5,32.3,27.2,19.4,89,83,75,29.95,29.57,9,1,9,0.01
2012-12-14,52.0,45.8,35.2,49.7,42.4,32.3,96,88,76,29.57,28.86,29,9,29,0.46
2012-12-15,52.7,47.8,43.0,46.6,43.4,39.4,90,85,77,29.53,29.14,17,4,17,0.00
2012-12-16,51.3,45.8,41.7,44.0,41.9,38.4,93,86,74,29.62,29.52,22,4,22,0.09
2012-12-17,45.9,44.4,36.0,43.0,40.8,31.6,91,87,77,29.79,29.55,12,4,12,0.59
2012-12-18,46.8,43.0,33.6,41.2,39.1,30.3,93,86,81,30.14,29.70,15,3,15,0.00
2012-12-19,46.0,42.0,32.0,43.1,38.4,28.6,95,87,76,30.14,29.82,26,7,26,0.12
2012-12-20,51.3,48.3,45.1,49.9,46.1,42.9,95,92,87,29.82,29.45,23,8,23,0.26
2012-12-21,50.9,45.8,43.5,45.9,42.9,40.2,95,90,76,29.98,29.64,14,3,14,0.00
2012-12-22,56.7,51.5,44.8,54.8,49.3,38.4,95,92,77,29.96,29.52,27,8,27,0.45
2012-12-23,55.9,53.5,49.5,53.7,48.6,45.0,93,84,75,29.74,29.53,23,7,23,0.02
2012-12-24,54.9,50.1,46.2,50.9,47.0,43.5,95,89,80,29.73,29.32,34,6,34,0.28
2012-12-25,48.9,46.4,42.8,46.3,42.9,38.5,95,88,77,29.63,29.23,22,6,22,0.85
2012-12-26,51.1,46.7,41.0,48.4,42.6,37.4,93,86,78,29.75,29.52,22,7,22,0.20
2012-12-27,47.7,45.6,37.6,45.0,40.5,34.1,91,83,76,30.14,29.43,30,7,30,0.14
2012-12-28,55.0,50.0,42.6,51.5,46.1,38.0,96,87,81,30.17,29.90,23,7,24,0.11
2012-12-29,54.3,50.6,43.2,48.5,45.0,37.9,88,81,72,29.90,29.50,41,10,41,0.17
2012-12-30,52.7,46.8,42.3,45.9,39.4,35.1,82,75,68,29.93,29.70,24,10,24,0.01
2012-12-31,53.2,51.7,48.9,49.0,47.2,45.2,90,85,75,29.91,29.46,24,9,24,0.08
2013-1-1,49.1,43.0,37.4,46.0,37.8,33.9,93,82,64,30.09,29.54,18,5,18,0.12